Time,TemperatureF,DewpointF,PressureIn,WindDirection,WindDirectionDegrees,WindSpeedMPH,WindSpeedGustMPH,Humidity,HourlyPrecipIn,Conditions,Clouds,dailyrainin,SoftwareType,DateUTC
2013-05-03 00:00:00,54.7,21.4,30.33,NW,326,0.0,4.0,27,0.00,,SCT,0.00,VWS V14.01,2013-05-03 07:00:00,
2013-05-03 00:05:00,54.5,21.2,30.33,NNW,343,5.4,5.4,27,0.00,,SCT,0.00,VWS V14.01,2013-05-03 07:05:00,
2013-05-03 00:10:00,54.5,21.2,30.33,NNW,339,0.0,5.4,27,0.00,,SCT,0.00,VWS V14.01,2013-05-03 07:10:00,
2013-05-03 00:15:00,54.3,21.1,30.33,NNW,342,0.0,0.0,27,0.00,,SCT,0.00,VWS V14.01,2013-05-03 07:15:00,
2013-05-03 00:20:00,54.3,21.1,30.33,NNW,330,0.0,0.0,27,0.00,,SCT,0.00,VWS V14.01,2013-05-03 07:20:00,
2013-05-03 00:25:00,54.3,21.1,30.33,NNW,331,0.0,0.0,27,0.00,,SCT,0.00,VWS V14.01,2013-05-03 07:25:00,
2013-05-03 00:30:00,54.1,20.9,30.33,NNW,341,0.0,0.0,27,0.00,,SCT,0.00,VWS V14.01,2013-05-03 07:30:00,
2013-05-03 00:35:00,54.1,20.9,30.33,NNW,330,0.0,6.3,27,0.00,,SCT,0.00,VWS V14.01,2013-05-03 07:35:00,
2013-05-03 00:40:00,54.0,20.8,30.33,NW,310,0.0,6.3,27,0.00,,SCT,0.00,VWS V14.01,2013-05-03 07:40:00,
2013-05-03 00:45:00,54.0,21.6,30.33,NNW,332,0.0,0.0,28,0.00,,SCT,0.00,VWS V14.01,2013-05-03 07:45:00,
2013-05-03 00:50:00,53.8,21.5,30.33,NNW,332,0.0,0.0,28,0.00,,SCT,0.00,VWS V14.01,2013-05-03 07:50:00,
2013-05-03 00:55:00,53.6,21.3,30.33,NNW,332,0.0,0.0,28,0.00,,SCT,0.00,VWS V14.01,2013-05-03 07:55:00,
2013-05-03 01:00:00,53.4,21.1,30.33,NNW,331,0.0,0.0,28,0.00,,SCT,0.00,VWS V14.01,2013-05-03 08:00:00,
2013-05-03 01:01:00,53.4,21.1,30.33,NNW,331,0.0,0.0,28,0.00,,SCT,0.00,VWS V14.01,2013-05-03 08:01:00,
2013-05-03 01:06:00,53.2,21.0,30.33,NNW,331,0.0,0.0,28,0.00,,SCT,0.00,VWS V14.01,2013-05-03 08:06:00,
2013-05-03 01:11:00,53.2,21.0,30.33,NNW,334,0.0,0.0,28,0.00,,SCT,0.00,VWS V14.01,2013-05-03 08:11:00,
2013-05-03 01:15:00,53.2,21.0,30.33,NNW,337,0.0,0.0,28,0.00,,SCT,0.00,VWS V14.01,2013-05-03 08:15:00,
2013-05-03 01:16:00,53.2,21.0,30.33,NNW,337,0.0,0.0,28,0.00,,SCT,0.00,VWS V14.01,2013-05-03 08:16:00,
2013-05-03 01:21:00,53.2,21.0,30.33,NNW,335,0.0,0.0,28,0.00,,SCT,0.00,VWS V14.01,2013-05-03 08:21:00,
2013-05-03 01:26:00,53.2,21.0,30.33,NNW,331,4.0,4.9,28,0.00,,SCT,0.00,VWS V14.01,2013-05-03 08:26:00,
2013-05-03 01:30:00,53.4,21.1,30.33,NNW,333,5.8,5.8,28,0.00,,SCT,0.00,VWS V14.01,2013-05-03 08:30:00,
2013-05-03 01:31:00,53.4,21.1,30.33,NNW,331,3.1,5.8,28,0.00,,SCT,0.00,VWS V14.01,2013-05-03 08:31:00,
2013-05-03 01:36:00,53.6,21.3,30.33,NNW,335,0.0,5.8,28,0.00,,SCT,0.00,VWS V14.01,2013-05-03 08:36:00,
2013-05-03 01:41:00,53.8,21.5,30.33,NNW,342,0.0,5.8,28,0.00,,SCT,0.00,VWS V14.01,2013-05-03 08:41:00,
2013-05-03 01:45:00,53.8,21.5,30.33,NNW,333,0.0,5.8,28,0.00,,SCT,0.00,VWS V14.01,2013-05-03 08:45:00,
2013-05-03 01:46:00,53.8,21.5,30.33,NNW,338,2.7,4.0,28,0.00,,SCT,0.00,VWS V14.01,2013-05-03 08:46:00,
2013-05-03 01:51:00,53.8,21.5,30.33,NNW,344,0.0,5.4,28,0.00,,SCT,0.00,VWS V14.01,2013-05-03 08:51:00,
2013-05-03 01:57:00,53.6,21.3,30.33,NNW,334,0.0,5.4,28,0.00,,SCT,0.00,VWS V14.01,2013-05-03 08:57:00,
2013-05-03 02:00:00,53.6,21.3,30.33,NNW,341,0.0,5.4,28,0.00,,SCT,0.00,VWS V14.01,2013-05-03 09:00:00,
2013-05-03 02:02:00,53.8,21.5,30.33,NNW,341,0.0,0.0,28,0.00,,SCT,0.00,VWS V14.01,2013-05-03 09:02:00,
2013-05-03 02:07:00,53.8,21.5,30.33,NNW,334,2.7,3.1,28,0.00,,SCT,0.00,VWS V14.01,2013-05-03 09:07:00,
2013-05-03 02:12:00,53.8,21.5,30.33,NNW,334,0.0,3.6,28,0.00,,SCT,0.00,VWS V14.01,2013-05-03 09:12:00,
2013-05-03 02:15:00,54.0,21.6,30.33,NNW,334,0.0,3.6,28,0.00,,SCT,0.00,VWS V14.01,2013-05-03 09:15:00,
2013-05-03 02:17:00,54.0,21.6,30.33,NNW,334,0.0,0.0,28,0.00,,SCT,0.00,VWS V14.01,2013-05-03 09:17:00,
2013-05-03 02:22:00,54.1,21.8,30.30,NNW,334,0.0,0.0,28,0.00,,SCT,0.00,VWS V14.01,2013-05-03 09:22:00,
2013-05-03 02:27:00,54.1,21.8,30.30,NNW,334,0.0,0.0,28,0.00,,SCT,0.00,VWS V14.01,2013-05-03 09:27:00,
2013-05-03 02:30:00,54.1,21.8,30.30,NNW,334,0.0,0.0,28,0.00,,SCT,0.00,VWS V14.01,2013-05-03 09:30:00,
2013-05-03 02:32:00,54.1,21.8,30.30,NNW,334,0.0,0.0,28,0.00,,SCT,0.00,VWS V14.01,2013-05-03 09:32:00,
2013-05-03 02:37:00,54.1,21.8,30.30,NNW,334,0.0,0.0,28,0.00,,SCT,0.00,VWS V14.01,2013-05-03 09:37:00,
2013-05-03 02:42:00,54.1,21.8,30.30,NNW,334,0.0,0.0,28,0.00,,SCT,0.00,VWS V14.01,2013-05-03 09:42:00,
2013-05-03 02:45:00,54.1,21.8,30.30,NNW,334,0.0,0.0,28,0.00,,SCT,0.00,VWS V14.01,2013-05-03 09:45:00,
2013-05-03 02:48:00,54.1,21.8,30.30,NNW,334,0.0,0.0,28,0.00,,SCT,0.00,VWS V14.01,2013-05-03 09:48:00,
2013-05-03 02:53:00,54.1,21.8,30.30,NNW,334,0.0,0.0,28,0.00,,SCT,0.00,VWS V14.01,2013-05-03 09:53:00,
2013-05-03 02:58:00,54.0,21.6,30.30,NNW,334,0.0,0.0,28,0.00,,SCT,0.00,VWS V14.01,2013-05-03 09:58:00,
2013-05-03 03:00:00,53.8,21.5,30.30,NNW,334,0.0,0.0,28,0.00,,SCT,0.00,VWS V14.01,2013-05-03 10:00:00,
2013-05-03 03:03:00,53.6,21.3,30.30,NNW,334,0.0,0.0,28,0.00,,SCT,0.00,VWS V14.01,2013-05-03 10:03:00,
2013-05-03 03:08:00,53.6,21.3,30.30,NNW,334,0.0,0.0,28,0.00,,SCT,0.00,VWS V14.01,2013-05-03 10:08:00,
2013-05-03 03:13:00,53.8,21.5,30.30,NNW,334,0.0,0.0,28,0.00,,SCT,0.00,VWS V14.01,2013-05-03 10:13:00,
2013-05-03 03:15:00,53.8,21.5,30.30,NNW,334,0.0,0.0,28,0.00,,SCT,0.00,VWS V14.01,2013-05-03 10:15:00,
2013-05-03 03:18:00,53.8,21.5,30.30,NNW,334,0.0,0.0,28,0.00,,SCT,0.00,VWS V14.01,2013-05-03 10:18:00,
2013-05-03 03:23:00,53.6,21.3,30.30,NNW,334,0.0,0.0,28,0.00,,SCT,0.00,VWS V14.01,2013-05-03 10:23:00,
2013-05-03 03:28:00,53.6,21.3,30.30,NNW,334,0.0,0.0,28,0.00,,SCT,0.00,VWS V14.01,2013-05-03 10:28:00,
2013-05-03 03:30:00,53.6,21.3,30.30,NNW,334,0.0,0.0,28,0.00,,SCT,0.00,VWS V14.01,2013-05-03 10:30:00,
2013-05-03 03:33:00,53.4,22.0,30.30,NNW,334,0.0,0.0,29,0.00,,SCT,0.00,VWS V14.01,2013-05-03 10:33:00,
2013-05-03 03:38:00,53.2,21.8,30.30,NNW,334,0.0,0.0,29,0.00,,SCT,0.00,VWS V14.01,2013-05-03 10:38:00,
2013-05-03 03:43:00,53.2,21.8,30.30,NNW,334,0.0,0.0,29,0.00,,SCT,0.00,VWS V14.01,2013-05-03 10:43:00,
2013-05-03 03:45:00,53.2,21.8,30.30,NNW,334,0.0,0.0,29,0.00,,SCT,0.00,VWS V14.01,2013-05-03 10:45:00,
2013-05-03 03:48:00,53.4,22.0,30.30,NNW,336,0.0,0.0,29,0.00,,SCT,0.00,VWS V14.01,2013-05-03 10:48:00,
2013-05-03 03:53:00,53.4,22.0,30.30,NNW,336,0.0,0.0,29,0.00,,SCT,0.00,VWS V14.01,2013-05-03 10:53:00,
2013-05-03 03:59:00,53.4,22.0,30.30,NNW,336,0.0,0.0,29,0.00,,SCT,0.00,VWS V14.01,2013-05-03 10:59:00,
2013-05-03 04:00:00,53.4,22.0,30.30,NNW,336,0.0,0.0,29,0.00,,SCT,0.00,VWS V14.01,2013-05-03 11:00:00,
2013-05-03 04:04:00,53.2,21.8,30.30,NNW,336,0.0,0.0,29,0.00,,SCT,0.00,VWS V14.01,2013-05-03 11:04:00,
2013-05-03 04:09:00,53.2,21.8,30.30,NNW,336,0.0,0.0,29,0.00,,SCT,0.00,VWS V14.01,2013-05-03 11:09:00,
2013-05-03 04:14:00,53.1,21.7,30.30,NNW,336,0.0,0.0,29,0.00,,SCT,0.00,VWS V14.01,2013-05-03 11:14:00,
2013-05-03 04:15:00,53.1,21.7,30.30,NNW,336,0.0,0.0,29,0.00,,SCT,0.00,VWS V14.01,2013-05-03 11:15:00,
2013-05-03 04:19:00,52.7,21.4,30.30,NNW,335,0.0,0.0,29,0.00,,SCT,0.00,VWS V14.01,2013-05-03 11:19:00,
2013-05-03 04:24:00,52.5,21.2,30.30,NNW,335,0.0,0.0,29,0.00,,SCT,0.00,VWS V14.01,2013-05-03 11:24:00,
2013-05-03 04:29:00,52.2,20.9,30.30,NNW,335,0.0,0.0,29,0.00,,SCT,0.00,VWS V14.01,2013-05-03 11:29:00,
2013-05-03 04:30:00,52.2,20.9,30.30,NNW,335,0.0,0.0,29,0.00,,SCT,0.00,VWS V14.01,2013-05-03 11:30:00,
2013-05-03 04:34:00,51.8,20.6,30.30,NNW,335,0.0,0.0,29,0.00,,SCT,0.00,VWS V14.01,2013-05-03 11:34:00,
2013-05-03 04:39:00,51.6,21.2,30.30,NNW,335,0.0,0.0,30,0.00,,SCT,0.00,VWS V14.01,2013-05-03 11:39:00,
2013-05-03 04:44:00,51.4,21.1,30.30,NNW,335,0.0,0.0,30,0.00,,SCT,0.00,VWS V14.01,2013-05-03 11:44:00,
2013-05-03 04:45:00,51.4,21.1,30.30,NNW,334,0.0,0.0,30,0.00,,SCT,0.00,VWS V14.01,2013-05-03 11:45:00,
2013-05-03 04:49:00,51.3,20.9,30.30,NNW,334,0.0,0.0,30,0.00,,SCT,0.00,VWS V14.01,2013-05-03 11:49:00,
2013-05-03 04:54:00,51.1,20.8,30.30,NW,326,0.0,0.0,30,0.00,,SCT,0.00,VWS V14.01,2013-05-03 11:54:00,
2013-05-03 04:59:00,50.7,20.4,30.30,NNW,331,0.0,0.0,30,0.00,,SCT,0.00,VWS V14.01,2013-05-03 11:59:00,
2013-05-03 05:00:00,50.7,20.4,30.30,NNW,331,0.0,0.0,30,0.00,,SCT,0.00,VWS V14.01,2013-05-03 12:00:00,
2013-05-03 05:04:00,50.5,20.3,30.30,NW,319,0.0,0.0,30,0.00,,SCT,0.00,VWS V14.01,2013-05-03 12:04:00,
2013-05-03 05:10:00,50.2,20.0,30.30,NNW,339,0.0,0.0,30,0.00,,SCT,0.00,VWS V14.01,2013-05-03 12:10:00,
2013-05-03 05:15:00,50.0,19.8,30.30,West,276,0.0,2.7,30,0.00,,SCT,0.00,VWS V14.01,2013-05-03 12:15:00,
2013-05-03 05:20:00,49.8,20.4,30.30,NW,317,0.0,0.0,31,0.00,,SCT,0.00,VWS V14.01,2013-05-03 12:20:00,
2013-05-03 05:25:00,49.6,20.3,30.30,NNW,332,0.0,0.0,31,0.00,,SCT,0.00,VWS V14.01,2013-05-03 12:25:00,
2013-05-03 05:30:00,49.5,20.1,30.30,NNW,332,0.0,0.0,31,0.00,,SCT,0.00,VWS V14.01,2013-05-03 12:30:00,
2013-05-03 05:35:00,49.3,19.9,30.30,NNW,335,0.0,0.0,31,0.00,,SCT,0.00,VWS V14.01,2013-05-03 12:35:00,
2013-05-03 05:40:00,49.1,20.5,30.30,NNW,335,0.0,0.0,32,0.00,,SCT,0.00,VWS V14.01,2013-05-03 12:40:00,
2013-05-03 05:45:00,49.1,20.5,30.30,NNW,335,0.0,0.0,32,0.00,,SCT,0.00,VWS V14.01,2013-05-03 12:45:00,
2013-05-03 05:50:00,48.9,20.4,30.30,NNW,335,0.0,0.0,32,0.00,,SCT,0.00,VWS V14.01,2013-05-03 12:50:00,
2013-05-03 05:55:00,48.9,20.4,30.30,NNW,335,0.0,0.0,32,0.00,,SCT,0.00,VWS V14.01,2013-05-03 12:55:00,
2013-05-03 06:00:00,48.9,20.4,30.30,NNW,335,0.0,0.0,32,0.00,,SCT,0.00,VWS V14.01,2013-05-03 13:00:00,
2013-05-03 06:05:00,48.9,21.1,30.30,NNW,335,0.0,0.0,33,0.00,,SCT,0.00,VWS V14.01,2013-05-03 13:05:00,
2013-05-03 06:10:00,48.9,21.1,30.30,NNW,335,0.0,0.0,33,0.00,,SCT,0.00,VWS V14.01,2013-05-03 13:10:00,
2013-05-03 06:15:00,48.9,21.1,30.30,NNW,335,0.0,0.0,33,0.00,,SCT,0.00,VWS V14.01,2013-05-03 13:15:00,
2013-05-03 06:20:00,48.9,21.8,30.30,NNW,335,0.0,0.0,34,0.00,,SCT,0.00,VWS V14.01,2013-05-03 13:20:00,
2013-05-03 06:26:00,48.9,21.8,30.30,NNW,335,0.0,0.0,34,0.00,,SCT,0.00,VWS V14.01,2013-05-03 13:26:00,
2013-05-03 06:30:00,48.9,21.8,30.30,NNW,335,0.0,0.0,34,0.00,,SCT,0.00,VWS V14.01,2013-05-03 13:30:00,
2013-05-03 06:31:00,48.9,21.8,30.30,NNW,335,0.0,0.0,34,0.00,,SCT,0.00,VWS V14.01,2013-05-03 13:31:00,
2013-05-03 06:36:00,48.9,22.5,30.30,NNW,335,0.0,0.0,35,0.00,,SCT,0.00,VWS V14.01,2013-05-03 13:36:00,
2013-05-03 06:41:00,48.9,23.2,30.30,NNW,335,0.0,0.0,36,0.00,,SCT,0.00,VWS V14.01,2013-05-03 13:41:00,
2013-05-03 06:45:00,48.7,23.0,30.30,NNW,335,0.0,0.0,36,0.00,,SCT,0.00,VWS V14.01,2013-05-03 13:45:00,
2013-05-03 06:46:00,48.7,23.0,30.30,NNW,335,0.0,0.0,36,0.00,,SCT,0.00,VWS V14.01,2013-05-03 13:46:00,
2013-05-03 06:51:00,48.9,23.8,30.30,NNW,335,0.0,0.0,37,0.00,,SCT,0.00,VWS V14.01,2013-05-03 13:51:00,
2013-05-03 06:56:00,49.1,24.0,30.30,NNW,335,0.0,0.0,37,0.00,,SCT,0.00,VWS V14.01,2013-05-03 13:56:00,
2013-05-03 07:00:00,49.1,24.0,30.30,NNW,335,0.0,0.0,37,0.00,,SCT,0.00,VWS V14.01,2013-05-03 14:00:00,
2013-05-03 07:01:00,49.1,24.0,30.30,NNW,335,0.0,0.0,37,0.00,,SCT,0.00,VWS V14.01,2013-05-03 14:01:00,
2013-05-03 07:06:00,48.9,24.5,30.30,NNW,335,0.0,0.0,38,0.00,,SCT,0.00,VWS V14.01,2013-05-03 14:06:00,
2013-05-03 07:11:00,48.9,24.5,30.30,NNW,335,0.0,0.0,38,0.00,,SCT,0.00,VWS V14.01,2013-05-03 14:11:00,
2013-05-03 07:15:00,49.1,24.6,30.30,NNW,335,0.0,0.0,38,0.00,,SCT,0.00,VWS V14.01,2013-05-03 14:15:00,
2013-05-03 07:16:00,49.3,24.8,30.30,NNW,335,0.0,0.0,38,0.00,,SCT,0.00,VWS V14.01,2013-05-03 14:16:00,
2013-05-03 07:21:00,49.5,24.9,30.30,NNW,335,0.0,0.0,38,0.00,,SCT,0.00,VWS V14.01,2013-05-03 14:21:00,
2013-05-03 07:26:00,49.6,25.1,30.30,NNW,335,0.0,0.0,38,0.00,,SCT,0.00,VWS V14.01,2013-05-03 14:26:00,
2013-05-03 07:30:00,49.6,25.1,30.30,NNW,335,0.0,0.0,38,0.00,,SCT,0.00,VWS V14.01,2013-05-03 14:30:00,
2013-05-03 07:31:00,49.6,25.1,30.30,NNW,335,0.0,0.0,38,0.00,,SCT,0.00,VWS V14.01,2013-05-03 14:31:00,
2013-05-03 07:37:00,49.8,25.2,30.30,NNW,335,0.0,0.0,38,0.00,,SCT,0.00,VWS V14.01,2013-05-03 14:37:00,
2013-05-03 07:42:00,50.0,25.4,30.30,NNW,335,0.0,0.0,38,0.00,,SCT,0.00,VWS V14.01,2013-05-03 14:42:00,
2013-05-03 07:45:00,50.0,25.4,30.30,NNW,335,0.0,0.0,38,0.00,,SCT,0.00,VWS V14.01,2013-05-03 14:45:00,
2013-05-03 07:47:00,50.2,25.6,30.30,NNW,335,0.0,0.0,38,0.00,,SCT,0.00,VWS V14.01,2013-05-03 14:47:00,
2013-05-03 07:52:00,50.2,25.6,30.30,NNW,335,0.0,0.0,38,0.00,,SCT,0.00,VWS V14.01,2013-05-03 14:52:00,
2013-05-03 07:57:00,50.4,25.7,30.30,NNW,335,0.0,0.0,38,0.00,,SCT,0.00,VWS V14.01,2013-05-03 14:57:00,
2013-05-03 08:00:00,50.5,25.9,30.30,NNW,335,0.0,0.0,38,0.00,,SCT,0.00,VWS V14.01,2013-05-03 15:00:00,
2013-05-03 08:02:00,50.7,26.0,30.30,NNW,335,0.0,0.0,38,0.00,,SCT,0.00,VWS V14.01,2013-05-03 15:02:00,
2013-05-03 08:07:00,51.1,26.4,30.30,NNW,335,0.0,0.0,38,0.00,,SCT,0.00,VWS V14.01,2013-05-03 15:07:00,
2013-05-03 08:12:00,51.3,26.5,30.30,NNW,335,0.0,0.0,38,0.00,,SCT,0.00,VWS V14.01,2013-05-03 15:12:00,
2013-05-03 08:15:00,51.4,26.7,30.30,NNW,335,0.0,0.0,38,0.00,,SCT,0.00,VWS V14.01,2013-05-03 15:15:00,
2013-05-03 08:17:00,51.6,26.9,30.30,NNW,335,0.0,0.0,38,0.00,,SCT,0.00,VWS V14.01,2013-05-03 15:17:00,
2013-05-03 08:22:00,52.0,26.5,30.30,NW,325,0.0,0.0,37,0.00,,SCT,0.00,VWS V14.01,2013-05-03 15:22:00,
2013-05-03 08:27:00,52.3,26.9,30.30,NW,320,0.0,0.0,37,0.00,,SCT,0.00,VWS V14.01,2013-05-03 15:27:00,
2013-05-03 08:30:00,49.6,25.1,100.00,NNW,335,0.0,0.0,38,0.00,,SCT,0.00,VWS V14.01,2013-05-03 15:30:00,
2013-05-03 08:45:00,50.0,25.4,100.00,NNW,335,0.0,0.0,38,0.00,,SCT,0.00,VWS V14.01,2013-05-03 15:45:00,
2013-05-03 09:00:00,50.5,25.9,100.00,NNW,335,0.0,0.0,38,0.00,,SCT,0.00,VWS V14.01,2013-05-03 16:00:00,
2013-05-03 09:15:00,51.4,26.7,100.00,NNW,335,0.0,0.0,38,0.00,,SCT,0.00,VWS V14.01,2013-05-03 16:15:00,
2013-05-03 12:46:00,68.7,29.5,30.30,NNW,329,0.0,0.0,23,0.00,,SCT,0.00,VWS V14.01,2013-05-03 19:46:00,
2013-05-03 12:51:00,68.7,29.5,30.30,WNW,288,3.6,8.7,23,0.00,,SCT,0.00,VWS V14.01,2013-05-03 19:51:00,
2013-05-03 12:56:00,69.1,29.8,30.30,NNW,346,6.3,8.7,23,0.00,,SCT,0.00,VWS V14.01,2013-05-03 19:56:00,
2013-05-03 13:00:00,69.4,30.1,30.30,NW,318,5.4,8.7,23,0.00,,SCT,0.00,VWS V14.01,2013-05-03 20:00:00,
2013-05-03 13:01:00,69.4,30.1,30.30,SE,130,0.0,6.3,23,0.00,,SCT,0.00,VWS V14.01,2013-05-03 20:01:00,
2013-05-03 13:07:00,69.8,30.4,30.30,NW,322,3.6,8.3,23,0.00,,SCT,0.00,VWS V14.01,2013-05-03 20:07:00,
2013-05-03 13:12:00,69.6,30.2,30.30,NW,307,4.9,8.3,23,0.00,,SCT,0.00,VWS V14.01,2013-05-03 20:12:00,
2013-05-03 13:15:00,69.6,30.2,30.30,NNW,342,2.7,8.3,23,0.00,,SCT,0.00,VWS V14.01,2013-05-03 20:15:00,
2013-05-03 13:17:00,69.4,30.1,30.30,North,353,8.7,8.7,23,0.00,,SCT,0.00,VWS V14.01,2013-05-03 20:17:00,
2013-05-03 13:22:00,70.2,30.7,30.30,NW,325,0.0,8.7,23,0.00,,SCT,0.00,VWS V14.01,2013-05-03 20:22:00,
2013-05-03 13:27:00,71.4,31.7,30.30,NNW,340,5.8,8.7,23,0.00,,SCT,0.00,VWS V14.01,2013-05-03 20:27:00,
2013-05-03 13:30:00,71.4,31.7,30.30,WNW,291,0.0,8.7,23,0.00,,SCT,0.00,VWS V14.01,2013-05-03 20:30:00,
2013-05-03 13:32:00,71.1,31.4,30.30,NW,317,7.6,10.1,23,0.00,,SCT,0.00,VWS V14.01,2013-05-03 20:32:00,
2013-05-03 13:37:00,71.1,31.4,30.30,NNW,330,0.0,10.1,23,0.00,,SCT,0.00,VWS V14.01,2013-05-03 20:37:00,
2013-05-03 13:42:00,71.6,30.8,30.30,NNE,16,2.7,10.1,22,0.00,,SCT,0.00,VWS V14.01,2013-05-03 20:42:00,
2013-05-03 13:45:00,71.8,30.9,30.30,West,279,0.0,10.1,22,0.00,,SCT,0.00,VWS V14.01,2013-05-03 20:45:00,
2013-05-03 13:47:00,72.0,31.1,30.30,WNW,302,3.1,4.0,22,0.00,,SCT,0.00,VWS V14.01,2013-05-03 20:47:00,
2013-05-03 13:52:00,72.0,31.1,30.30,NNW,327,2.7,10.1,22,0.00,,SCT,0.00,VWS V14.01,2013-05-03 20:52:00,
2013-05-03 13:57:00,72.3,31.4,30.30,NNW,338,0.0,10.1,22,0.00,,SCT,0.00,VWS V14.01,2013-05-03 20:57:00,
2013-05-03 14:00:00,72.5,31.5,30.30,NNE,29,2.7,10.1,22,0.00,,SCT,0.00,VWS V14.01,2013-05-03 21:00:00,
2013-05-03 14:02:00,72.9,31.8,30.30,SE,135,0.0,4.0,22,0.00,,SCT,0.00,VWS V14.01,2013-05-03 21:02:00,
2013-05-03 14:07:00,73.4,32.3,30.30,NW,321,3.6,6.3,22,0.00,,SCT,0.00,VWS V14.01,2013-05-03 21:07:00,
2013-05-03 14:12:00,73.6,32.4,30.30,West,260,0.0,6.3,22,0.00,,SCT,0.00,VWS V14.01,2013-05-03 21:12:00,
2013-05-03 14:15:00,73.6,32.4,30.30,North,0,0.0,7.2,22,0.00,,SCT,0.00,VWS V14.01,2013-05-03 21:15:00,
2013-05-03 14:18:00,73.8,32.6,30.30,NNW,335,0.0,11.9,22,0.00,,SCT,0.00,VWS V14.01,2013-05-03 21:18:00,
2013-05-03 14:23:00,73.4,31.1,30.30,NW,323,6.3,11.9,21,0.00,,SCT,0.00,VWS V14.01,2013-05-03 21:23:00,
2013-05-03 14:28:00,72.9,31.8,30.30,SW,229,0.0,11.9,22,0.00,,SCT,0.00,VWS V14.01,2013-05-03 21:28:00,
2013-05-03 14:30:00,73.0,32.0,30.30,NNE,15,3.1,11.9,22,0.00,,SCT,0.00,VWS V14.01,2013-05-03 21:30:00,
2013-05-03 14:33:00,73.8,32.6,30.30,WSW,258,0.0,3.6,22,0.00,,SCT,0.00,VWS V14.01,2013-05-03 21:33:00,
2013-05-03 14:38:00,74.3,31.9,30.30,WNW,296,3.1,3.6,21,0.00,,SCT,0.00,VWS V14.01,2013-05-03 21:38:00,
2013-05-03 14:43:00,74.3,33.0,30.30,North,349,3.1,5.4,22,0.00,,SCT,0.00,VWS V14.01,2013-05-03 21:43:00,
2013-05-03 14:45:00,74.5,32.0,30.30,NW,319,4.5,6.3,21,0.00,,SCT,0.00,VWS V14.01,2013-05-03 21:45:00,
2013-05-03 14:48:00,74.7,33.3,30.30,ENE,78,0.0,9.6,22,0.00,,SCT,0.00,VWS V14.01,2013-05-03 21:48:00,
2013-05-03 14:53:00,74.1,32.9,30.30,SW,233,0.0,10.1,22,0.00,,SCT,0.00,VWS V14.01,2013-05-03 21:53:00,
2013-05-03 14:58:00,74.8,33.5,30.30,ESE,122,4.0,10.1,22,0.00,,SCT,0.00,VWS V14.01,2013-05-03 21:58:00,
2013-05-03 15:00:00,74.8,33.5,30.30,North,11,4.0,10.1,22,0.00,,SCT,0.00,VWS V14.01,2013-05-03 22:00:00,
2013-05-03 15:03:00,75.2,33.8,30.30,NW,305,0.0,8.7,22,0.00,,SCT,0.00,VWS V14.01,2013-05-03 22:03:00,
2013-05-03 15:08:00,75.6,34.1,30.27,SSE,157,0.0,8.7,22,0.00,,SCT,0.00,VWS V14.01,2013-05-03 22:08:00,
2013-05-03 15:13:00,75.4,32.8,30.27,SSW,212,0.0,8.7,21,0.00,,SCT,0.00,VWS V14.01,2013-05-03 22:13:00,
2013-05-03 15:15:00,75.2,32.6,30.27,North,357,4.0,8.7,21,0.00,,SCT,0.00,VWS V14.01,2013-05-03 22:15:00,
2013-05-03 15:18:00,75.2,32.6,30.27,WNW,298,0.0,7.6,21,0.00,,SCT,0.00,VWS V14.01,2013-05-03 22:18:00,
2013-05-03 15:23:00,75.7,33.1,30.27,ESE,123,3.1,7.6,21,0.00,,SCT,0.00,VWS V14.01,2013-05-03 22:23:00,
2013-05-03 15:29:00,75.6,32.9,30.27,North,5,3.1,8.7,21,0.00,,SCT,0.00,VWS V14.01,2013-05-03 22:29:00,
2013-05-03 15:30:00,75.4,32.8,30.27,NNW,330,0.0,8.7,21,0.00,,SCT,0.00,VWS V14.01,2013-05-03 22:30:00,
2013-05-03 15:34:00,75.2,32.6,30.27,West,264,3.6,4.0,21,0.00,,SCT,0.00,VWS V14.01,2013-05-03 22:34:00,
2013-05-03 15:39:00,75.6,32.9,30.27,NNW,343,0.0,6.3,21,0.00,,SCT,0.00,VWS V14.01,2013-05-03 22:39:00,
2013-05-03 15:44:00,76.1,33.4,30.27,West,276,3.1,6.3,21,0.00,,SCT,0.00,VWS V14.01,2013-05-03 22:44:00,
2013-05-03 15:45:00,76.1,33.4,30.27,West,280,0.0,6.3,21,0.00,,SCT,0.00,VWS V14.01,2013-05-03 22:45:00,
2013-05-03 15:49:00,75.6,32.9,30.27,South,177,0.0,10.5,21,0.00,,SCT,0.00,VWS V14.01,2013-05-03 22:49:00,
2013-05-03 15:54:00,75.6,32.9,30.27,WNW,295,4.0,10.5,21,0.00,,SCT,0.00,VWS V14.01,2013-05-03 22:54:00,
2013-05-03 15:59:00,75.4,32.8,30.27,WNW,288,5.4,10.5,21,0.00,,SCT,0.00,VWS V14.01,2013-05-03 22:59:00,
2013-05-03 16:00:00,75.4,32.8,30.27,WNW,289,2.7,10.5,21,0.00,,SCT,0.00,VWS V14.01,2013-05-03 23:00:00,
2013-05-03 16:04:00,75.6,32.9,30.27,SW,225,0.0,12.3,21,0.00,,SCT,0.00,VWS V14.01,2013-05-03 23:04:00,
2013-05-03 16:09:00,75.4,32.8,30.27,NNW,342,0.0,12.3,21,0.00,,SCT,0.00,VWS V14.01,2013-05-03 23:09:00,
2013-05-03 16:14:00,75.7,33.1,30.27,WSW,250,2.2,12.3,21,0.00,,SCT,0.00,VWS V14.01,2013-05-03 23:14:00,
2013-05-03 16:15:00,75.6,32.9,30.27,SSE,164,2.2,12.3,21,0.00,,SCT,0.00,VWS V14.01,2013-05-03 23:15:00,
2013-05-03 16:19:00,75.7,33.1,30.27,NNW,333,7.2,7.2,21,0.00,,SCT,0.00,VWS V14.01,2013-05-03 23:19:00,
2013-05-03 16:24:00,75.9,33.2,30.27,NW,320,7.2,7.6,21,0.00,,SCT,0.00,VWS V14.01,2013-05-03 23:24:00,
2013-05-03 16:29:00,75.6,32.9,30.27,NW,305,10.1,10.1,21,0.00,,SCT,0.00,VWS V14.01,2013-05-03 23:29:00,
2013-05-03 16:30:00,75.6,32.9,30.27,NW,316,7.6,10.1,21,0.00,,SCT,0.00,VWS V14.01,2013-05-03 23:30:00,
2013-05-03 16:34:00,75.2,32.6,30.27,North,6,3.1,8.1,21,0.00,,SCT,0.00,VWS V14.01,2013-05-03 23:34:00,
2013-05-03 16:39:00,75.6,32.9,30.27,NNW,340,5.4,8.7,21,0.00,,SCT,0.00,VWS V14.01,2013-05-03 23:39:00,
2013-05-03 16:45:00,75.7,33.1,30.27,SSW,199,0.0,8.7,21,0.00,,SCT,0.00,VWS V14.01,2013-05-03 23:45:00,
2013-05-03 16:50:00,76.1,33.4,30.27,West,270,3.6,6.3,21,0.00,,SCT,0.00,VWS V14.01,2013-05-03 23:50:00,
2013-05-03 16:55:00,75.7,33.1,30.27,WNW,299,0.0,6.7,21,0.00,,SCT,0.00,VWS V14.01,2013-05-03 23:55:00,
2013-05-03 17:00:00,75.4,32.8,30.27,WSW,257,10.1,10.1,21,0.00,,SCT,0.00,VWS V14.01,2013-05-04 00:00:00,
2013-05-03 17:05:00,75.0,32.5,30.27,NW,318,0.0,10.1,21,0.00,,SCT,0.00,VWS V14.01,2013-05-04 00:05:00,
2013-05-03 17:10:00,75.0,32.5,30.27,ENE,77,8.3,10.1,21,0.00,,SCT,0.00,VWS V14.01,2013-05-04 00:10:00,
2013-05-03 17:15:00,74.8,32.3,30.27,NNE,19,4.0,5.4,21,0.00,,SCT,0.00,VWS V14.01,2013-05-04 00:15:00,
2013-05-03 17:20:00,74.7,32.2,30.27,North,1,10.5,10.5,21,0.00,,SCT,0.00,VWS V14.01,2013-05-04 00:20:00,
2013-05-03 17:25:00,74.7,32.2,30.27,NW,314,6.3,10.5,21,0.00,,SCT,0.00,VWS V14.01,2013-05-04 00:25:00,
2013-05-03 17:30:00,74.3,31.9,30.27,South,174,0.0,0.0,21,0.00,,SCT,0.00,VWS V14.01,2013-05-04 00:30:00,
2013-05-03 17:35:00,74.3,31.9,30.27,South,173,0.0,2.7,21,0.00,,SCT,0.00,VWS V14.01,2013-05-04 00:35:00,
2013-05-03 17:40:00,73.8,31.4,30.27,NNW,330,0.0,7.6,21,0.00,,SCT,0.00,VWS V14.01,2013-05-04 00:40:00,
2013-05-03 17:45:00,73.6,32.4,30.27,West,274,0.0,3.6,22,0.00,,SCT,0.00,VWS V14.01,2013-05-04 00:45:00,
2013-05-03 17:50:00,73.2,33.2,30.27,WNW,288,3.6,3.6,23,0.00,,SCT,0.00,VWS V14.01,2013-05-04 00:50:00,
2013-05-03 17:56:00,73.0,32.0,30.27,ESE,123,0.0,6.3,22,0.00,,SCT,0.00,VWS V14.01,2013-05-04 00:56:00,
2013-05-03 18:00:00,72.9,31.8,30.27,WNW,285,7.2,10.5,22,0.00,,SCT,0.00,VWS V14.01,2013-05-04 01:00:00,
2013-05-03 18:01:00,72.7,31.7,30.27,NW,314,5.4,7.2,22,0.00,,SCT,0.00,VWS V14.01,2013-05-04 01:01:00,
2013-05-03 18:06:00,72.7,31.7,30.27,West,269,0.0,7.2,22,0.00,,SCT,0.00,VWS V14.01,2013-05-04 01:06:00,
2013-05-03 18:11:00,72.7,31.7,30.27,SW,227,0.0,7.2,22,0.00,,SCT,0.00,VWS V14.01,2013-05-04 01:11:00,
2013-05-03 18:15:00,72.9,31.8,30.27,South,170,0.0,7.2,22,0.00,,SCT,0.00,VWS V14.01,2013-05-04 01:15:00,
2013-05-03 18:16:00,72.7,31.7,30.27,South,174,0.0,0.0,22,0.00,,SCT,0.00,VWS V14.01,2013-05-04 01:16:00,
2013-05-03 18:21:00,72.7,31.7,30.24,South,184,2.2,4.9,22,0.00,,SCT,0.00,VWS V14.01,2013-05-04 01:21:00,
2013-05-03 18:26:00,72.5,31.5,30.24,SE,146,0.0,5.4,22,0.00,,SCT,0.00,VWS V14.01,2013-05-04 01:26:00,
2013-05-03 18:30:00,72.5,31.5,30.24,SSE,168,0.0,5.4,22,0.00,,SCT,0.00,VWS V14.01,2013-05-04 01:30:00,
2013-05-03 18:31:00,72.3,31.4,30.24,West,266,2.2,3.1,22,0.00,,SCT,0.00,VWS V14.01,2013-05-04 01:31:00,
2013-05-03 18:36:00,72.1,31.2,30.27,SSE,164,2.2,10.5,22,0.00,,SCT,0.00,VWS V14.01,2013-05-04 01:36:00,
2013-05-03 18:41:00,71.4,31.7,30.27,WSW,248,2.7,10.5,23,0.00,,SCT,0.00,VWS V14.01,2013-05-04 01:41:00,
2013-05-03 18:45:00,70.9,31.3,30.27,West,278,0.0,10.5,23,0.00,,SCT,0.00,VWS V14.01,2013-05-04 01:45:00,
2013-05-03 18:46:00,70.9,31.3,30.27,ESE,123,0.0,0.0,23,0.00,,SCT,0.00,VWS V14.01,2013-05-04 01:46:00,
2013-05-03 18:51:00,70.7,31.1,30.27,WNW,288,5.4,5.4,23,0.00,,SCT,0.00,VWS V14.01,2013-05-04 01:51:00,
2013-05-03 18:56:00,70.5,31.0,30.27,NNW,338,0.0,8.3,23,0.00,,SCT,0.00,VWS V14.01,2013-05-04 01:56:00,
2013-05-03 19:00:00,70.3,30.8,30.27,WNW,301,0.0,8.3,23,0.00,,SCT,0.00,VWS V14.01,2013-05-04 02:00:00,
2013-05-03 19:01:00,70.3,30.8,30.27,NW,318,0.0,0.0,23,0.00,,SCT,0.00,VWS V14.01,2013-05-04 02:01:00,
2013-05-03 19:06:00,70.0,30.5,30.27,NW,322,0.0,4.9,23,0.00,,SCT,0.00,VWS V14.01,2013-05-04 02:06:00,
2013-05-03 19:12:00,69.6,30.2,30.27,WNW,284,0.0,4.9,23,0.00,,SCT,0.00,VWS V14.01,2013-05-04 02:12:00,
2013-05-03 19:15:00,69.4,30.1,30.27,NW,308,6.3,6.3,23,0.00,,SCT,0.00,VWS V14.01,2013-05-04 02:15:00,
2013-05-03 19:17:00,69.1,29.8,30.27,SSW,205,0.0,6.3,23,0.00,,SCT,0.00,VWS V14.01,2013-05-04 02:17:00,
2013-05-03 19:22:00,68.9,29.6,30.27,SW,236,0.0,6.3,23,0.00,,SCT,0.00,VWS V14.01,2013-05-04 02:22:00,
2013-05-03 19:27:00,68.5,29.3,30.27,ENE,68,5.8,7.6,23,0.00,,SCT,0.00,VWS V14.01,2013-05-04 02:27:00,
2013-05-03 19:30:00,68.2,29.0,30.27,NW,315,5.4,7.6,23,0.00,,SCT,0.00,VWS V14.01,2013-05-04 02:30:00,
2013-05-03 19:32:00,68.0,28.9,30.27,East,99,0.0,5.4,23,0.00,,SCT,0.00,VWS V14.01,2013-05-04 02:32:00,
2013-05-03 19:37:00,67.6,28.5,30.27,SSW,208,0.0,6.3,23,0.00,,SCT,0.00,VWS V14.01,2013-05-04 02:37:00,
2013-05-03 19:42:00,67.1,28.1,30.27,NNE,22,0.0,6.3,23,0.00,,SCT,0.00,VWS V14.01,2013-05-04 02:42:00,
2013-05-03 19:45:00,67.1,28.1,30.27,West,268,0.0,6.3,23,0.00,,SCT,0.00,VWS V14.01,2013-05-04 02:45:00,
2013-05-03 19:47:00,66.9,27.9,30.27,South,180,0.0,4.0,23,0.00,,SCT,0.00,VWS V14.01,2013-05-04 02:47:00,
2013-05-03 19:52:00,66.2,27.3,30.27,SSE,153,0.0,4.0,23,0.00,,SCT,0.00,VWS V14.01,2013-05-04 02:52:00,
2013-05-03 19:57:00,65.5,27.8,30.27,North,357,0.0,4.0,24,0.00,,SCT,0.00,VWS V14.01,2013-05-04 02:57:00,
2013-05-03 20:00:00,65.1,27.5,30.27,East,85,0.0,4.0,24,0.00,,SCT,0.00,VWS V14.01,2013-05-04 03:00:00,
2013-05-03 20:02:00,64.8,27.2,30.27,SE,129,0.0,0.0,24,0.00,,SCT,0.00,VWS V14.01,2013-05-04 03:02:00,
2013-05-03 20:07:00,63.9,26.4,30.27,ESE,111,0.0,0.0,24,0.00,,SCT,0.00,VWS V14.01,2013-05-04 03:07:00,
2013-05-03 20:12:00,63.1,25.8,30.27,ESE,118,0.0,0.0,24,0.00,,SCT,0.00,VWS V14.01,2013-05-04 03:12:00,
2013-05-03 20:15:00,63.0,25.6,30.27,ESE,118,0.0,0.0,24,0.00,,SCT,0.00,VWS V14.01,2013-05-04 03:15:00,
2013-05-03 20:17:00,62.6,26.3,30.27,SE,127,0.0,0.0,25,0.00,,SCT,0.00,VWS V14.01,2013-05-04 03:17:00,
2013-05-03 20:22:00,62.2,26.0,30.24,ENE,72,0.0,0.0,25,0.00,,SCT,0.00,VWS V14.01,2013-05-04 03:22:00,
2013-05-03 20:28:00,62.1,25.9,30.24,East,82,0.0,0.0,25,0.00,,SCT,0.00,VWS V14.01,2013-05-04 03:28:00,
2013-05-03 20:30:00,61.9,26.6,30.24,WSW,246,0.0,2.7,26,0.00,,SCT,0.00,VWS V14.01,2013-05-04 03:30:00,
2013-05-03 20:33:00,61.7,26.5,30.24,West,261,0.0,0.0,26,0.00,,SCT,0.00,VWS V14.01,2013-05-04 03:33:00,
2013-05-03 20:38:00,61.3,26.2,30.24,SW,220,0.0,0.0,26,0.00,,SCT,0.00,VWS V14.01,2013-05-04 03:38:00,
2013-05-03 20:43:00,60.6,26.5,30.24,SSE,162,0.0,0.0,27,0.00,,SCT,0.00,VWS V14.01,2013-05-04 03:43:00,
2013-05-03 20:45:00,60.6,26.5,30.24,SSE,162,0.0,0.0,27,0.00,,SCT,0.00,VWS V14.01,2013-05-04 03:45:00,
2013-05-03 20:48:00,60.4,26.3,30.24,South,188,0.0,0.0,27,0.00,,SCT,0.00,VWS V14.01,2013-05-04 03:48:00,
2013-05-03 20:53:00,60.3,26.2,30.24,South,191,0.0,0.0,27,0.00,,SCT,0.00,VWS V14.01,2013-05-04 03:53:00,
2013-05-03 20:58:00,60.1,26.0,30.24,SSW,211,0.0,0.0,27,0.00,,SCT,0.00,VWS V14.01,2013-05-04 03:58:00,
2013-05-03 21:00:00,60.1,26.9,30.24,SSW,211,0.0,0.0,28,0.00,,SCT,0.00,VWS V14.01,2013-05-04 04:00:00,
2013-05-03 21:01:00,59.9,25.9,30.24,SSW,211,0.0,0.0,27,0.00,,SCT,0.00,VWS V14.01,2013-05-04 04:01:00,
2013-05-03 21:02:00,59.9,26.7,30.24,NW,317,0.0,0.0,28,0.00,,SCT,0.00,VWS V14.01,2013-05-04 04:02:00,
2013-05-03 21:04:00,59.7,26.6,30.24,NW,313,0.0,0.0,28,0.00,,SCT,0.00,VWS V14.01,2013-05-04 04:04:00,
2013-05-03 21:09:00,59.5,26.4,30.24,NW,313,0.0,0.0,28,0.00,,SCT,0.00,VWS V14.01,2013-05-04 04:09:00,
2013-05-03 21:14:00,59.4,26.3,30.24,WNW,299,0.0,0.0,28,0.00,,SCT,0.00,VWS V14.01,2013-05-04 04:14:00,
2013-05-03 21:15:00,59.4,26.3,30.24,WNW,299,0.0,0.0,28,0.00,,SCT,0.00,VWS V14.01,2013-05-04 04:15:00,
2013-05-03 21:19:00,59.0,26.0,30.24,WNW,299,0.0,0.0,28,0.00,,SCT,0.00,VWS V14.01,2013-05-04 04:19:00,
2013-05-03 21:24:00,58.8,26.6,30.24,WNW,299,0.0,0.0,29,0.00,,SCT,0.00,VWS V14.01,2013-05-04 04:24:00,
2013-05-03 21:29:00,58.6,26.5,30.24,WNW,299,0.0,0.0,29,0.00,,SCT,0.00,VWS V14.01,2013-05-04 04:29:00,
2013-05-03 21:30:00,58.6,26.5,30.24,WNW,299,0.0,0.0,29,0.00,,SCT,0.00,VWS V14.01,2013-05-04 04:30:00,
2013-05-03 21:34:00,58.5,26.3,30.24,WNW,299,0.0,0.0,29,0.00,,SCT,0.00,VWS V14.01,2013-05-04 04:34:00,
2013-05-03 21:39:00,57.9,25.9,30.24,WNW,299,0.0,0.0,29,0.00,,SCT,0.00,VWS V14.01,2013-05-04 04:39:00,
2013-05-03 21:44:00,57.9,26.7,30.24,WNW,299,0.0,0.0,30,0.00,,SCT,0.00,VWS V14.01,2013-05-04 04:44:00,
2013-05-03 21:45:00,57.9,26.7,30.24,WNW,299,0.0,0.0,30,0.00,,SCT,0.00,VWS V14.01,2013-05-04 04:45:00,
2013-05-03 21:49:00,57.6,26.4,30.24,WNW,299,0.0,0.0,30,0.00,,SCT,0.00,VWS V14.01,2013-05-04 04:49:00,
2013-05-03 21:54:00,57.4,26.2,30.27,WNW,299,0.0,0.0,30,0.00,,SCT,0.00,VWS V14.01,2013-05-04 04:54:00,
2013-05-03 21:59:00,57.2,26.1,30.27,WNW,299,0.0,0.0,30,0.00,,SCT,0.00,VWS V14.01,2013-05-04 04:59:00,
2013-05-03 22:00:00,57.2,26.1,30.27,WNW,299,0.0,0.0,30,0.00,,SCT,0.00,VWS V14.01,2013-05-04 05:00:00,
2013-05-03 22:04:00,57.2,26.9,30.27,WNW,299,0.0,0.0,31,0.00,,SCT,0.00,VWS V14.01,2013-05-04 05:04:00,
2013-05-03 22:09:00,56.8,26.5,30.27,WNW,299,0.0,0.0,31,0.00,,SCT,0.00,VWS V14.01,2013-05-04 05:09:00,
2013-05-03 22:15:00,56.3,26.1,30.27,NNW,339,0.0,0.0,31,0.00,,SCT,0.00,VWS V14.01,2013-05-04 05:15:00,
2013-05-03 22:20:00,56.1,25.9,30.27,NNW,333,0.0,0.0,31,0.00,,SCT,0.00,VWS V14.01,2013-05-04 05:20:00,
2013-05-03 22:25:00,56.1,26.7,30.27,NW,323,0.0,0.0,32,0.00,,SCT,0.00,VWS V14.01,2013-05-04 05:25:00,
2013-05-03 22:30:00,55.9,26.5,30.27,NW,323,0.0,0.0,32,0.00,,SCT,0.00,VWS V14.01,2013-05-04 05:30:00,
2013-05-03 22:35:00,55.9,26.5,30.27,NW,323,0.0,0.0,32,0.00,,SCT,0.00,VWS V14.01,2013-05-04 05:35:00,
2013-05-03 22:40:00,55.8,26.4,30.27,NW,323,0.0,0.0,32,0.00,,SCT,0.00,VWS V14.01,2013-05-04 05:40:00,
2013-05-03 22:45:00,55.8,26.4,30.27,NW,323,0.0,0.0,32,0.00,,SCT,0.00,VWS V14.01,2013-05-04 05:45:00,
2013-05-03 22:50:00,55.4,26.0,30.27,NW,323,0.0,0.0,32,0.00,,SCT,0.00,VWS V14.01,2013-05-04 05:50:00,
2013-05-03 22:55:00,55.2,26.6,30.27,NW,323,0.0,0.0,33,0.00,,SCT,0.00,VWS V14.01,2013-05-04 05:55:00,
2013-05-03 23:00:00,54.7,26.2,30.27,NNW,333,0.0,0.0,33,0.00,,SCT,0.00,VWS V14.01,2013-05-04 06:00:00,
2013-05-03 23:05:00,54.5,26.7,30.27,NNW,333,0.0,0.0,34,0.00,,SCT,0.00,VWS V14.01,2013-05-04 06:05:00,
2013-05-03 23:10:00,54.1,25.7,30.27,NNW,328,0.0,0.0,33,0.00,,SCT,0.00,VWS V14.01,2013-05-04 06:10:00,
2013-05-03 23:15:00,53.8,26.1,30.27,NW,319,0.0,0.0,34,0.00,,SCT,0.00,VWS V14.01,2013-05-04 06:15:00,
2013-05-03 23:21:00,53.8,26.1,30.27,NNW,330,0.0,0.0,34,0.00,,SCT,0.00,VWS V14.01,2013-05-04 06:21:00,
2013-05-03 23:26:00,53.6,26.6,30.27,NNW,334,0.0,0.0,35,0.00,,SCT,0.00,VWS V14.01,2013-05-04 06:26:00,
2013-05-03 23:30:00,53.4,26.5,30.27,NNW,334,0.0,0.0,35,0.00,,SCT,0.00,VWS V14.01,2013-05-04 06:30:00,
2013-05-03 23:31:00,53.4,26.5,30.27,NNW,334,0.0,0.0,35,0.00,,SCT,0.00,VWS V14.01,2013-05-04 06:31:00,
2013-05-03 23:36:00,53.4,26.5,30.27,NNW,334,0.0,0.0,35,0.00,,SCT,0.00,VWS V14.01,2013-05-04 06:36:00,
2013-05-03 23:41:00,53.2,27.0,30.27,NNW,334,0.0,0.0,36,0.00,,SCT,0.00,VWS V14.01,2013-05-04 06:41:00,
2013-05-03 23:45:00,53.2,27.0,30.27,NNW,334,0.0,0.0,36,0.00,,SCT,0.00,VWS V14.01,2013-05-04 06:45:00,
2013-05-03 23:46:00,53.2,27.0,30.27,NNW,334,0.0,0.0,36,0.00,,SCT,0.00,VWS V14.01,2013-05-04 06:46:00,
2013-05-03 23:51:00,53.1,26.8,30.24,NW,310,0.0,0.0,36,0.00,,SCT,0.00,VWS V14.01,2013-05-04 06:51:00,
2013-05-03 23:56:00,52.9,26.7,30.24,NW,321,0.0,0.0,36,0.00,,SCT,0.00,VWS V14.01,2013-05-04 06:56:00,